Lid_Strength_Index
14 13 13 14 14 14 15 16 17 16 16 14 12 12 12 11 11 11 11 11 10 10 10 10 10 10 10 10 11 11 11 11 11 11 11 11 11 11 12 12 11 10 11 11
15 15 14 15 15 15 15 15 14 15 14 11 12 11 12 11 11 11 11 10 10 10 10 11 11 11 11 11 12 12 13 13 12 13 13 13 13 12 12 12 12 12 12 12
18 17 16 18 16 15 15 14 14 17 14 13 13 12 12 12 12 12 11 11 10 10 10 10 10 11 11 11 12 13 14 14 14 14 13 13 13 13 13 12 12 12 13 13
20 20 22 17 17 16 14 14 13 14 14 13 13 13 13 12 12 12 12 12 11 11 11 11 11 11 12 13 13 13 13 13 14 14 13 13 13 13 13 13 13 13 13 14
20 26 20 17 17 17 17 17 14 14 14 14 14 15 14 11 10 11 11 11 11 11 11 11 12 12 13 13 13 13 13 13 13 13 14 13 13 13 13 14 14 14 14 16
25 26 26 20 16 15 15 20 15 13 12 13 13 16 14 10 11 11 11 11 11 11 11 11 11 12 13 13 14 13 13 13 13 13 14 14 13 13 14 16 14 15 15 16
20 20 20 17 15 13 19 18 15 11 11 12 13 12 11 11 11 10 11 11 11 11 11 11 11 13 13 13 13 12 13 14 14 14 14 14 14 16 17 16 15 16 16 15
15 16 20 15 14 15 14 12 11 11 11 11 11 11 11 11 11 11 11 11 11 12 12 12 12 14 13 14 13 14 15 15 15 15 15 14 16 17 17 17 17 13 14 14
14 14 11 12 12 11 10 11 11 11 10 11 12 12 12 11 11 11 11 11 11 13 13 13 14 16 15 14 15 15 16 16 15 15 15 15 18 16 13 13 13 13 14 14
14 13 12 12 11 10 10 10 10 10 11 12 12 12 12 12 12 12 13 13 14 15 15 14 14 15 16 16 14 14 14 15 15 15 15 16 15 15 14 13 13 12 13 13
16 13 13 12 11 10 10 11 12 12 12 12 12 12 12 13 13 12 13 14 16 15 15 14 14 16 19 17 20 18 15 14 14 12 14 15 16 16 16 16 14 17 15 14
16 12 12 12 11 11 12 12 12 12 13 12 12 12 12 13 13 14 14 15 15 16 16 16 17 17 19 22 22 21 19 15 13 12 12 15 16 15 10 9 8 8 8 11
13 12 12 11 11 13 12 13 13 14 14 14 13 14 16 16 16 16 17 17 17 17 18 18 18 19 22 22 24 22 20 17 14 12 12 13 16 15 14 12 8 8 8 8
12 12 13 12 13 14 13 14 15 16 16 15 17 19 19 19 19 19 19 19 18 19 20 19 19 20 23 25 23 22 20 18 16 13 12 14 14 13 13 14 14 13 11 10
13 13 13 15 15 16 17 18 19 18 18 19 20 21 22 22 22 21 21 21 20 22 22 24 24 23 24 23 22 21 19 17 14 12 13 13 13 12 12 13 14 14 13 12
17 18 19 18 17 18 19 21 21 20 21 22 23 22 23 23 24 24 23 22 25 23 25 27 26 24 23 23 22 20 18 15 13 14 15 13 12 13 13 14 15 15 14 15
19 21 23 22 19 20 21 21 21 22 23 24 25 26 26 27 27 26 25 27 30 28 28 27 25 24 23 21 20 18 16 15 14 14 14 14 13 14 14 15 16 17 16 13
18 20 20 20 20 21 22 23 24 26 27 26 26 27 28 30 28 27 26 27 27 27 27 26 24 22 21 20 18 17 16 15 16 16 16 16 16 16 16 17 17 18 19 17
24 22 23 22 23 24 25 27 28 29 29 30 31 30 30 28 29 30 28 29 29 29 27 24 20 21 21 20 17 17 17 17 18 18 18 18 18 18 18 19 19 20 19 20
30 29 27 28 29 30 31 32 33 33 33 34 34 33 31 30 31 31 30 29 28 26 23 24 22 22 21 20 19 19 19 19 20 20 20 20 20 20 20 21 21 22 22 22
29 29 29 29 32 34 34 35 35 34 33 34 34 33 32 30 32 31 31 29 26 24 22 22 22 22 21 20 20 21 21 21 21 22 21 21 22 22 22 23 23 23 24 24
32 31 30 30 31 33 36 37 36 36 35 34 33 32 31 31 30 29 28 28 26 22 22 22 22 22 22 22 23 23 23 23 23 23 23 23 23 23 24 24 25 25 26 26
33 33 31 32 32 34 38 37 36 35 34 35 33 33 30 29 28 27 28 27 26 22 23 23 21 22 23 24 24 24 24 24 24 24 24 24 25 25 26 26 28 29 30 30
38 37 36 38 38 37 35 35 37 37 36 35 34 33 30 30 31 29 27 25 23 23 24 22 22 21 24 25 25 25 25 25 25 26 26 25 27 27 28 28 28 30 32 33
37 39 38 37 36 36 38 37 36 37 36 35 34 33 30 28 30 29 28 26 23 24 24 24 22 23 26 26 26 26 26 27 27 27 28 29 30 32 34 35 35 35 36 35
39 37 38 39 37 37 36 36 35 36 35 35 34 33 32 30 29 28 27 26 25 25 25 26 26 26 26 27 27 27 27 27 28 29 30 33 36 35 35 34 34 33 34 35
39 37 39 37 37 37 37 36 36 35 35 36 34 33 30 30 28 27 27 27 27 26 26 26 27 27 27 27 28 28 28 29 29 31 35 34 34 34 33 32 33 33 33 33